• In India
  • List of Countries
  • For 7 days
  • Water Temperature
  • Satellite Maps
  • Weather Map
  • Weather Widgets
  • user-avatar
    Login

    Hourly Weather Zalokot'

    Today, 18 January, Friday

    Time Temperature Precipitation Wind Pressure Humidity
    00:00 -1°C° 0 mm 6 mps 702 mmHg 83%
    01:00 -1°C° 0 mm 6 mps 702 mmHg 83%
    02:00 +1°C° 0 mm 3 mps 702 mmHg 87%
    03:00 0°C° 0.2 mm 4 mps 702 mmHg 88%
    04:00 0°C° 0.2 mm 4 mps 702 mmHg 88%
    05:00 0°C° 0.2 mm 4 mps 701 mmHg 88%
    06:00 +1°C° 0.6 mm 3 mps 702 mmHg 90%
    07:00 0°C° 0.6 mm 3 mps 702 mmHg 91%
    08:00 +1°C° 0 mm 2 mps 702 mmHg 92%
    09:00 +1°C° 0.9 mm 2 mps 702 mmHg 93%
    10:00 +1°C° 0.9 mm 2 mps 703 mmHg 93%
    11:00 +1°C° 0.9 mm 2 mps 703 mmHg 93%
    12:00 +1°C° 0.8 mm 2 mps 703 mmHg 93%
    13:00 -1°C° 0.8 mm 3 mps 704 mmHg 92%
    14:00 -1°C° 0 mm 3 mps 704 mmHg 91%
    15:00 -1°C° 0.5 mm 3 mps 705 mmHg 91%
    16:00 -2°C° 0.5 mm 3 mps 705 mmHg 91%
    17:00 -4°C° 0.5 mm 3 mps 705 mmHg 90%
    18:00 -4°C° 0.3 mm 3 mps 706 mmHg 91%
    19:00 -4°C° 0.3 mm 3 mps 706 mmHg 92%
    20:00 -5°C° 0.3 mm 3 mps 707 mmHg 93%
    21:00 -5°C° 0.2 mm 3 mps 708 mmHg 93%
    22:00 -4°C° 0.2 mm 2 mps 708 mmHg 93%
    23:00 -5°C° 0.2 mm 2 mps 709 mmHg 94%

    Tomorrow, 19 January, Saturday

    Time Temperature Precipitation Wind Pressure Humidity
    00:00 -5°C° 0 mm 2 mps 709 mmHg 94%
    01:00 -6°C° 0 mm 2 mps 710 mmHg 95%
    02:00 -6°C° 0 mm 1 mps 710 mmHg 95%
    03:00 -6°C° 0 mm 1 mps 710 mmHg 95%
    04:00 -7°C° 0 mm 1 mps 710 mmHg 95%
    05:00 -7°C° 0 mm 1 mps 710 mmHg 95%
    06:00 -7°C° 0 mm 1 mps 711 mmHg 94%
    07:00 -8°C° 0 mm 1 mps 711 mmHg 94%
    08:00 -8°C° 0 mm 1 mps 711 mmHg 94%
    09:00 -7°C° 0 mm 1 mps 711 mmHg 90%
    10:00 -6°C° 0 mm 1 mps 711 mmHg 86%
    11:00 -4°C° 0 mm 1 mps 712 mmHg 83%
    12:00 -4°C° 0 mm 0 mps 712 mmHg 79%
    13:00 -3°C° 0 mm 0 mps 712 mmHg 75%
    14:00 -3°C° 0 mm 0 mps 711 mmHg 71%
    15:00 -4°C° 0 mm 0 mps 711 mmHg 76%
    16:00 -4°C° 0 mm 1 mps 711 mmHg 81%
    17:00 -6°C° 0 mm 1 mps 711 mmHg 86%
    18:00 -7°C° 0 mm 1 mps 710 mmHg 87%
    19:00 -7°C° 0 mm 1 mps 710 mmHg 89%
    20:00 -8°C° 0 mm 1 mps 710 mmHg 91%
    21:00 -8°C° 0 mm 1 mps 710 mmHg 90%
    22:00 -8°C° 0 mm 1 mps 710 mmHg 90%
    23:00 -8°C° 0 mm 1 mps 710 mmHg 89%

    Day after tomorrow, 20 January, Sunday

    Time Temperature Precipitation Wind Pressure Humidity
    00:00 -8°C° 0 mm 1 mps 710 mmHg 88%
    01:00 -8°C° 0 mm 1 mps 709 mmHg 86%
    02:00 -8°C° 0 mm 1 mps 709 mmHg 84%
    03:00 -8°C° 0 mm 1 mps 709 mmHg 82%
    04:00 -7°C° 0 mm 1 mps 708 mmHg 81%
    05:00 -7°C° 0 mm 1 mps 708 mmHg 79%
    06:00 -7°C° 0 mm 1 mps 708 mmHg 80%
    07:00 -6°C° 0 mm 1 mps 708 mmHg 81%
    08:00 -6°C° 0 mm 1 mps 708 mmHg 81%
    09:00 -5°C° 0 mm 0 mps 708 mmHg 82%
    10:00 -4°C° 0 mm 0 mps 708 mmHg 82%
    11:00 -3°C° 0 mm 0 mps 708 mmHg 82%
    12:00 -3°C° 0.1 mm 0 mps 707 mmHg 83%
    13:00 -2°C° 0.1 mm 1 mps 707 mmHg 85%
    14:00 -1°C° 0.1 mm 1 mps 707 mmHg 86%
    15:00 -2°C° 0.3 mm 1 mps 707 mmHg 89%
    16:00 -3°C° 0.3 mm 1 mps 707 mmHg 92%
    17:00 -3°C° 0.3 mm 1 mps 706 mmHg 95%
    18:00 -3°C° 0.5 mm 1 mps 707 mmHg 95%
    19:00 -4°C° 0.5 mm 1 mps 707 mmHg 96%
    20:00 -4°C° 0.5 mm 1 mps 707 mmHg 96%
    21:00 -4°C° 0.4 mm 1 mps 707 mmHg 96%
    22:00 -4°C° 0.4 mm 1 mps 708 mmHg 96%
    23:00 -4°C° 0.4 mm 1 mps 708 mmHg 96%

    21 January, Monday

    Time Temperature Precipitation Wind Pressure Humidity
    00:00 -6°C° 0.2 mm 1 mps 708 mmHg 96%
    01:00 -6°C° 0.2 mm 1 mps 708 mmHg 96%
    02:00 -6°C° 0.2 mm 1 mps 709 mmHg 96%
    03:00 -6°C° 0.1 mm 1 mps 709 mmHg 96%
    04:00 -6°C° 0.1 mm 1 mps 709 mmHg 96%
    05:00 -7°C° 0.1 mm 1 mps 709 mmHg 96%
    06:00 -7°C° 0 mm 1 mps 709 mmHg 96%
    07:00 -8°C° 0 mm 1 mps 710 mmHg 96%
    08:00 -8°C° 0 mm 1 mps 710 mmHg 96%
    09:00 -7°C° 0 mm 1 mps 710 mmHg 94%
    10:00 -6°C° 0 mm 1 mps 711 mmHg 92%
    11:00 -6°C° 0 mm 1 mps 711 mmHg 89%
    12:00 -4°C° 0 mm 1 mps 711 mmHg 89%
    13:00 -3°C° 0 mm 1 mps 711 mmHg 88%
    14:00 -3°C° 0 mm 1 mps 711 mmHg 88%
    15:00 -3°C° 0 mm 1 mps 711 mmHg 89%
    16:00 -3°C° 0 mm 1 mps 711 mmHg 90%
    17:00 -4°C° 0 mm 1 mps 711 mmHg 91%
    18:00 -4°C° 0 mm 1 mps 711 mmHg 91%
    19:00 -6°C° 0 mm 1 mps 711 mmHg 92%
    20:00 -6°C° 0 mm 1 mps 712 mmHg 92%
    21:00 -7°C° 0 mm 1 mps 711 mmHg 92%
    22:00 -8°C° 0 mm 1 mps 711 mmHg 92%
    23:00 -9°C° 0 mm 1 mps 711 mmHg 93%

    22 January, Tuesday

    Time Temperature Precipitation Wind Pressure Humidity
    00:00 -9°C° 0 mm 1 mps 711 mmHg 92%
    01:00 -10°C° 0 mm 1 mps 710 mmHg 92%
    02:00 -10°C° 0 mm 1 mps 710 mmHg 91%
    03:00 -10°C° 0 mm 1 mps 710 mmHg 90%
    04:00 -10°C° 0 mm 1 mps 709 mmHg 88%
    05:00 -10°C° 0 mm 1 mps 709 mmHg 87%
    06:00 -10°C° 0 mm 1 mps 709 mmHg 87%
    07:00 -10°C° 0 mm 1 mps 708 mmHg 86%
    08:00 -10°C° 0 mm 1 mps 708 mmHg 86%
    09:00 -8°C° 0 mm 1 mps 708 mmHg 86%
    10:00 -6°C° 0 mm 1 mps 708 mmHg 85%
    11:00 -4°C° 0 mm 1 mps 708 mmHg 84%
    12:00 -3°C° 0 mm 1 mps 708 mmHg 84%
    13:00 -2°C° 0 mm 1 mps 707 mmHg 83%
    14:00 -1°C° 0 mm 1 mps 707 mmHg 82%
    15:00 -2°C° 0 mm 1 mps 706 mmHg 85%
    16:00 -3°C° 0 mm 1 mps 706 mmHg 88%
    17:00 -3°C° 0 mm 1 mps 705 mmHg 92%
    18:00 -4°C° 0 mm 1 mps 704 mmHg 92%
    19:00 -8°C° 0 mm 2 mps 704 mmHg 93%
    20:00 -9°C° 0 mm 2 mps 703 mmHg 94%
    21:00 -9°C° 0 mm 2 mps 703 mmHg 93%
    22:00 -9°C° 0 mm 2 mps 703 mmHg 91%
    23:00 -9°C° 0 mm 2 mps 702 mmHg 90%

    23 January, Wednesday

    Time Temperature Precipitation Wind Pressure Humidity
    00:00 -9°C° 0 mm 2 mps 701 mmHg 90%
    01:00 -9°C° 0 mm 2 mps 701 mmHg 89%
    02:00 -9°C° 0 mm 2 mps 700 mmHg 88%
    03:00 -9°C° 0 mm 2 mps 700 mmHg 89%
    04:00 -9°C° 0 mm 2 mps 699 mmHg 89%
    05:00 -9°C° 0 mm 2 mps 698 mmHg 90%
    06:00 -9°C° 0 mm 2 mps 698 mmHg 91%
    07:00 -8°C° 0 mm 2 mps 697 mmHg 91%
    08:00 -7°C° 0 mm 2 mps 697 mmHg 92%
    09:00 -6°C° 0 mm 2 mps 697 mmHg 91%
    10:00 -5°C° 0 mm 2 mps 696 mmHg 91%
    11:00 -4°C° 0 mm 2 mps 696 mmHg 90%
    12:00 -3°C° 0 mm 2 mps 696 mmHg 91%
    13:00 -2°C° 0 mm 2 mps 695 mmHg 92%
    14:00 -2°C° 0 mm 2 mps 695 mmHg 94%
    15:00 -2°C° 0.1 mm 2 mps 695 mmHg 95%
    16:00 -2°C° 0.1 mm 2 mps 695 mmHg 95%
    17:00 -2°C° 0.1 mm 2 mps 694 mmHg 96%
    18:00 -2°C° 0.2 mm 2 mps 694 mmHg 96%
    19:00 -2°C° 0.2 mm 2 mps 694 mmHg 96%
    20:00 -2°C° 0.2 mm 3 mps 695 mmHg 95%
    21:00 -2°C° 0 mm 3 mps 694 mmHg 95%
    22:00 -4°C° 0 mm 3 mps 694 mmHg 95%
    23:00 -4°C° 0 mm 3 mps 694 mmHg 95%
    Show more